Weather History for KTRI - April, 2013

Change the Weather History Date:

Thursday, April 4, 2013

  Actual Average Record
Temperature  
Mean Temperature 41 °F 52 °F  
Max Temperature 45 °F 65 °F 82 °F (1981)
Min Temperature 37 °F 39 °F 22 °F (1943)
Degree Days  
Heating Degree Days 24 13  
Month to date heating degree days 85 54  
Since 1 July heating degree days 4000 4004  
Cooling Degree Days 0 0  
Month to date cooling degree days 0 0  
Year to date cooling degree days 0 1  
Moisture  
Dew Point 31 °F    
Average Humidity 61    
Maximum Humidity 92    
Minimum Humidity 30    
Precipitation  
Precipitation 0.97 in 0.10 in 2.52 in (1977)
Month to date precipitation 0.97 0.43  
Year to date precipitation 17.44 10.69  
Snow  
Snow T in 0.10 in - ()
Month to date snowfall T 0.2  
Since 1 July snowfall 9.2 12.4  
Snow Depth 0.00 in    
Sea Level Pressure  
Sea Level Pressure 30.11 in    
Wind  
Wind Speed 4 mph (ENE)    
Max Wind Speed 10 mph    
Max Gust Speed 15 mph    
Visibility 6 miles    
Events Rain    
T = Trace of Precipitation, MM = Missing Value Source: NWS Daily Summary

Daily Weather History Graph

Daily Weather History Graph

Search for Another Location

Airport or City:

Trip Planner

Search our weather history database for the weather conditions in past years. The results will help you decide how hot, cold, wet, or windy it might be!

Date:

Astronomy

Apr. 04, 2013 Rise Set
Actual Time 7:10 AM EDT 7:54 PM EDT
Civil Twilight 6:44 AM EDT 8:20 PM EDT
Nautical Twilight 6:14 AM EDT 8:51 PM EDT
Astronomical Twilight 5:42 AM EDT 9:23 PM EDT
Moon 3:27 AM EDT 2:20 PM EDT
Length of Visible Light 13h 35m
Length of Day
12h 43m
Waning Crescent, 34% of the Moon is Illuminated
Apr 4
Waning Crescent
Apr 10
New
Apr 18
First Quarter
Apr 25
Full
May 2
Last Quarter

Hourly Weather History & Observations

Time (EDT) Temp. Windchill Dew Point Humidity Pressure Visibility Wind Dir Wind Speed Gust Speed Precip Events Conditions
12:53 AM 41.0 °F 38.0 °F 19.0 °F 41% 30.19 in 10.0 mi NE 4.6 mph - N/A   Overcast
1:53 AM 43.0 °F - 14.0 °F 31% 30.19 in 10.0 mi Calm Calm - N/A   Overcast
2:53 AM 42.1 °F - 16.0 °F 35% 30.17 in 10.0 mi Calm Calm - N/A   Overcast
3:53 AM 41.0 °F - 21.0 °F 45% 30.16 in 10.0 mi Calm Calm - N/A   Overcast
4:53 AM 39.9 °F 36.7 °F 21.0 °F 47% 30.14 in 10.0 mi NE 4.6 mph - N/A   Overcast
5:53 AM 39.0 °F 36.8 °F 21.9 °F 50% 30.14 in 10.0 mi NNE 3.5 mph - N/A   Mostly Cloudy
6:53 AM 39.0 °F 36.8 °F 23.0 °F 53% 30.16 in 10.0 mi ENE 3.5 mph - N/A   Mostly Cloudy
7:53 AM 39.9 °F - 26.1 °F 58% 30.16 in 10.0 mi Calm Calm - N/A   Overcast
8:53 AM 43.0 °F - 23.0 °F 45% 30.15 in 10.0 mi Calm Calm - N/A   Overcast
9:53 AM 45.0 °F 42.6 °F 19.9 °F 37% 30.14 in 10.0 mi ENE 4.6 mph - N/A   Overcast
10:53 AM 42.1 °F 37.7 °F 28.0 °F 58% 30.15 in 10.0 mi SSE 6.9 mph - 0.01 in Rain Light Rain
11:53 AM 39.9 °F 37.8 °F 33.1 °F 77% 30.14 in 5.0 mi SSE 3.5 mph - 0.09 in Rain Rain
12:53 PM 37.9 °F 34.4 °F 35.1 °F 89% 30.15 in 2.0 mi ENE 4.6 mph - 0.13 in Rain Heavy Rain
1:36 PM 37.9 °F 33.5 °F 35.1 °F 89% 30.16 in 5.0 mi NE 5.8 mph - 0.16 in Rain Rain
1:53 PM 37.9 °F 33.5 °F 35.1 °F 89% 30.14 in 4.0 mi NE 5.8 mph - 0.19 in Rain Rain
2:26 PM 37.9 °F 33.5 °F 36.0 °F 93% 30.13 in 2.5 mi ENE 5.8 mph - 0.11 in Rain Heavy Rain
2:53 PM 37.9 °F 33.5 °F 36.0 °F 93% 30.13 in 2.5 mi East 5.8 mph - 0.18 in Rain Rain
3:06 PM 37.9 °F 33.5 °F 36.0 °F 93% 30.13 in 3.0 mi ENE 5.8 mph - 0.02 in Rain Rain
3:28 PM 37.9 °F 33.5 °F 36.0 °F 93% 30.13 in 3.0 mi ENE 5.8 mph - 0.06 in Rain Rain
3:53 PM 37.0 °F 32.4 °F 35.1 °F 93% 30.11 in 3.0 mi NE 5.8 mph - 0.12 in Rain Rain
4:15 PM 37.0 °F 33.3 °F 35.1 °F 93% 30.11 in 2.5 mi NE 4.6 mph - 0.07 in Rain Rain
4:22 PM 37.0 °F 32.4 °F 35.1 °F 93% 30.10 in 3.0 mi NE 5.8 mph - 0.10 in Rain Rain
4:38 PM 37.0 °F 33.3 °F 36.0 °F 96% 30.10 in 2.5 mi NE 4.6 mph - 0.14 in Rain Rain
4:49 PM 37.4 °F 32.8 °F 35.6 °F 93% 30.09 in 3.0 mi NE 5.8 mph - 0.15 in Rain Rain
4:53 PM 37.0 °F 33.3 °F 36.0 °F 96% 30.08 in 4.0 mi NE 4.6 mph - 0.16 in Rain Rain
5:11 PM 37.0 °F 31.6 °F 35.1 °F 93% 30.08 in 3.0 mi NE 6.9 mph - 0.03 in Rain Rain
5:20 PM 37.0 °F 32.4 °F 35.1 °F 93% 30.08 in 3.0 mi NE 5.8 mph - 0.04 in Rain Light Rain
5:53 PM 37.0 °F 31.6 °F 35.1 °F 93% 30.06 in 3.0 mi NE 6.9 mph - 0.06 in Rain Light Rain
6:53 PM 37.0 °F 32.4 °F 35.1 °F 93% 30.03 in 6.0 mi ENE 5.8 mph - 0.00 in   Overcast
7:53 PM 37.0 °F 32.4 °F 35.1 °F 93% 30.01 in 9.0 mi NE 5.8 mph - N/A   Overcast
8:00 PM - - - N/A% - - North - - N/A   Unknown
8:53 PM 37.0 °F 33.3 °F 35.1 °F 93% 29.99 in 10.0 mi NE 4.6 mph - N/A   Overcast
9:53 PM 37.9 °F 34.4 °F 35.1 °F 89% 29.98 in 10.0 mi ENE 4.6 mph - N/A   Overcast
10:53 PM 37.0 °F 34.5 °F 35.1 °F 93% 29.98 in 10.0 mi East 3.5 mph - 0.00 in Rain Light Rain
11:53 PM 37.9 °F - 36.0 °F 93% 29.97 in 8.0 mi Calm Calm - 0.02 in Rain Light Rain